Miscellaneous Local Product
Issued by NWS North Platte, NE

Home | Current Version | Previous Version | Text Only | Print | Product List | Glossary On
Versions: 1 2 3 4 5 6 7 8 9 10 11 12 13 14 15 16 17 18 19 20 21 22 23 24 25 26 27 28 29 30 31 32 33 34 35 36 37 38 39 40 41 42 43 44 45 46 47 48 49 50
000
AXUS43 KLBF 232310
MISLBF


WESTERN AND NORTH CENTRAL NEBRASKA HOURLY WEATHER ROUNDUP
NATIONAL WEATHER SERVICE NORTH PLATTE NE
600 PM CDT MON APR 23 2018

NOTE: "FAIR" INDICATES FEW OR NO CLOUDS BELOW 12,000 FEET WITH NO
SIGNIFICANT WEATHER AND/OR OBSTRUCTIONS TO VISIBILITY.

NOTE: STATIONS NOT REPORTING VARIABLES SUCH AS SKY/WEATHER OR
PRESSURE ARE PROVIDED BY RAWS AND APRS NETWORKS AND ARE NOT UNDER
NATIONAL WEATHER SERVICE QUALITY CONTROL.

...OBSERVATIONS IN AND NEAR THE EASTERN PANHANDLE OF NEBRASKA...

CITY           SKY/WX    TMP DP  RH WIND       PRES   REMARKS
PINE RIDGE     CLOUDY    67  39  35 S14       29.98F
GORDON         FAIR      67  38  34 S14       30.01S
CHADRON        CLOUDY    66  41  40 SW9       30.00R
ALLIANCE       PTSUNNY   65  41  41 SE17      29.99F
SIDNEY         PTSUNNY   68  40  35 S13       30.01F
CRESCENT LAKE    N/A     66  39  37 S12         N/A
$$

...OBSERVATIONS IN NORTHERN NEBRASKA AND FAR SOUTHERN SOUTH DAKOTA...

CITY           SKY/WX    TMP DP  RH WIND       PRES   REMARKS
WINNER         FAIR      70  37  29 SE14G23   30.03F
VALENTINE      MOSUNNY   70  39  32 S17G25    30.04S
AINSWORTH      MOSUNNY   66  38  36 S13       30.04F
O`NEILL        MOSUNNY   70  34  26 SE8       30.07F
THEDFORD       MOSUNNY   69  40  35 S16       30.05S
BROKEN BOW     MOSUNNY   67  40  37 S13G20    30.06S
ORD            MOSUNNY   68  36  30 E9        30.05F
ALBION         SUNNY     71  36  28 SE7       30.07S
VALENTINE NWR    N/A     67  38  34 SE14        N/A
HALSEY           N/A     67  38  34 S9G20       N/A
BUTTE            N/A     68  39  34 S9          N/A
CHAMBERS         N/A     68  38  33 SE6         N/A
EWING            N/A     70  37  29 SE3         N/A
$$

...OBSERVATIONS IN SOUTHWEST NEBRASKA AND FAR NORTHEAST COLORADO...

CITY           SKY/WX    TMP DP  RH WIND       PRES   REMARKS
WRAY           FAIR      70  37  30 S10G18    30.01F
HOLYOKE        FAIR      72  39  30 SE18G26   30.01F
IMPERIAL       PTSUNNY   68  37  32 SE12      30.02S
OGALLALA       MOSUNNY   69  38  32 SE14      30.02F
NORTH PLATTE   MOSUNNY   68  42  38 S14G22    30.04S
MCCOOK         MOSUNNY   67  40  37 S13       30.03F
LEXINGTON      MOSUNNY   68  38  32 S10       30.05S
STAPLETON        N/A     66  42  42 SE3         N/A
GOTHENBURG       N/A     66  37  34 SE9         N/A
CALLAWAY         N/A     68  42  38 S12         N/A
$$

...OBSERVATIONS IN CENTRAL LINCOLN COUNTY AREA...

CITY           SKY/WX    TMP DP  RH WIND       PRES   REMARKS
N.P. AIRPORT   MOSUNNY   68  42  38 S14G22    30.04S
N.P. DOWNTOWN    N/A     68  42  38 S3          N/A
N.P. SOUTHEAST   N/A     67  42  39 S8G15       N/A
N.P. HILLCREST   N/A     67  42  39 S10G20      N/A
$$

...OBSERVATIONS ACROSS THE ROCKIES AND WESTERN HIGH PLAINS...

CITY           SKY/WX    TMP DP  RH WIND       PRES   REMARKS
RAPID CITY     CLOUDY    65  39  38 E12       29.97F
SCOTTSBLUFF    PTSUNNY   67  44  43 S8        29.99R
CHEYENNE       PTSUNNY   63  34  33 SW6       30.02S
DENVER         PTSUNNY   71  32  23 VRB3      29.98F
BERTHOUD PASS  FAIR      36  28  75 W16       30.34R WCI  26
MONARCH PASS   PTSUNNY   43  14  31 W30G44    30.44F
ASPEN          PTSUNNY   63  22  20 SW15G22   30.11F
STEAMBOAT      FAIR      65  27  24 W18G28    30.05S
LARAMIE        PTSUNNY   56  36  47 N21G37    30.06S
CASPER         CLOUDY    39  33  79 N25       30.18R WCI  28
$$

...OBSERVATIONS ACROSS THE NORTHERN PLAINS...

CITY           SKY/WX    TMP DP  RH WIND       PRES   REMARKS
BISMARCK       CLOUDY    60  31  33 NE18      30.16S
FARGO          FAIR      65  40  39 N14       30.14S
PIERRE         MOSUNNY   70  39  32 SE15G23   30.02F
SIOUX FALLS    MOSUNNY   68  35  29 E6        30.10F
$$

...OBSERVATIONS ACROSS THE CENTRAL AND SOUTHERN PLAINS...

CITY           SKY/WX    TMP DP  RH WIND       PRES   REMARKS
OMAHA          MOSUNNY   75  28  17 NE7       30.06S
GRAND ISLAND   MOSUNNY   70  39  32 SE5G17    30.06F
KANSAS CITY    MOSUNNY   74  32  21 NE8       30.01F
WICHITA        MOSUNNY   73  43  33 NE7       30.02F
DODGE CITY     SUNNY     70  39  32 MISG      30.05F
OKLAHOMA CITY  MOSUNNY   72  45  37 N13       30.02S
DALLAS         MOSUNNY   75  50  41 NW7G16    29.98F
AMARILLO       SUNNY     73  39  29 S14       30.04F
$$




USA.gov is the U.S. government's official web portal to all federal, state and local government web resources and services.